Погода в Виноградово

Россия / Московская область     55°25′34″N   38°33′27″E
темп.,
°C
ветер,
м/с
пор.,
м/с
влажн.,
%
обл.,
%
осадки,
мм/ч
давл.,
гПа
погр.,
м
15 мая, сб
сб1500:00+13в379977 0.0 1011157
03:00+14юв51197100 1.8 1010254
06:00+16в379668 0.8 1007174
09:00+20юв588749 2.1 1008601
12:00+24ююз685955 0.3 10081541
15:00+22ююз68655 0.9 10091414
18:00+20ююз59723 0.5 10091011
21:00+15ю412885 0.6 1010296
16 мая, вс
вс1600:00+13ю413905 0.0 1010377
03:00+12ююз411961 0.0 1011304
06:00+13ююз410920 0.0 1012339
09:00+17ююз59710 0.0 1013749
12:00+20ююз69595 0.0 10131433
15:00+20ююз69624 0.4 10131671
18:00+20юз47690 0.1 1013705
21:00+15ююз34850 0.1 101471
17 мая, пн
пн1700:00+13юз2290100 0.0 101512
03:00+12ююв119161 0.0 101511
06:00+14вюв238773 0.0 101694
09:00+20вюв356654 0.0 1015513
12:00+24вюв46549 0.0 10141157
15:00+26юв575145 0.0 10121427
18:00+24юв49685 0.0 1011640
21:00+18вюв414824 0.0 1011312
18 мая, вт
вт1800:00+17юв514825 0.0 1010340
03:00+16юв5167822 0.0 1009405
06:00+16юв513725 0.0 1009357
09:00+20юв61261100 0.0 1008533
12:00+24ююв7125320 0.0 1008984
15:00+25ююв7125918 0.0 10081437
18:00+22ю51171100 0.2 1007778
21:00+17ю238921 0.7 100740
19 мая, ср
ср1900:00+16зюз2693100 0.5 1007182
03:00+15вюв249682 0.8 1006116
06:00+15ююв41094100 0.6 1006353
09:00+18ююв4787100 1.1 1005442
12:00+20ю61075100 1.9 10051253
15:00+17ю5987100 5.9 1005756
18:00+16ю598799 1.9 1005664
21:00+13зюз5119526 5.6 1007486